Location: Krasnoyarskiy Pitomnik
(51.1333°N, 71.6167°E)
Time: 11:06:12
(UTC+00:00)

Altair - Pass Details

Date: 21 April 2024
Orbit: 1501 x 1682 km, 47.2° (Epoch: 17 May)

Event Time Altitude Azimuth Distance (km) Brightness Sun altitude
Rises 11:07:14 0° 166° (SSE) 4,920 10.2 28.8°
Reaches altitude 10° 11:14:14 10° 134° (SE) 3,921 9.4 27.7°
Maximum altitude 11:16:14 11° 122° (ESE) 3,854 9.3 27.4°
Drops below altitude 10° 11:18:14 10° 110° (ESE) 3,906 9.3 27.1°
Sets 11:25:05 0° 77° (ENE) 4,858 9.5 26.1°
